カタログに戻る

THOR ABLESTAR DEB

運用中LEO
NORAD 120·DEBRIS·🇺🇸 United States

打ち上げ Jun 29, 1961 から Cape Canaveral Space Force Station

Loading…

次のパス (今後24時間)

TLE

最新Source: Space-Track

元期: Sep 5, 2026, 08:00 UTC

1 00120U 61015E   26248.33396407  .00000376  00000-0  16779-3 0  9992
2 00120  66.7034 222.0538 0116408 304.4506  54.5634 14.29668154359780

AllMySatでTHOR ABLESTAR DEBをリアルタイム追跡

Download on the App Store